www.pogodaiklimat.ru

Погода и климат >> Архив погоды >> Россия >> Пензенская область >> Пачелма


ПОГОДА в Пачелме

  • Прогноз погоды в Пачелме
  • Монитор погоды в Пачелме

АРХИВ ПОГОДЫ в Пачелме

Время (UTC), дата Ветер
(напр.,м/с)
 
Видим.   Явления Облачность Т
(С)
Тd
(С)
f
(%)
Тe
(С)
Тes
(С)
Комфортность P
(гПа)
Po
(гПа)
Тmin
(С)
Tmax
(С)
R
(мм)
R24
(мм)
S
(см)
12 18.05 СЗ 5-10
{10}
10 км 3/3 600 м
[Cu hum]
+20.3 +2.9 32 +21 +25 комфорт 1014.0 983.9
15 18.05 СЗ 4
{10}
10 км 3/3 600 м
[Cu hum]
+19.6 +3.2 34 +20 +21 1012.8 982.6 +20.5
18 18.05 С 1 10 км ясно +13.7 +2.0 45 +14 +14 1014.1 983.3
21 18.05 С 2 10 км ясно +11.3 +0.9 49 +11 +11 1015.1 983.9
00 19.05 штиль 0 10 км ясно +4.8 +2.3 84 +4 +4 1015.6 983.7
03 19.05 З 2 10 км 3/3 600 м
[Cu med, cong]
+7.9 +2.5 69 +6 +7 1014.7 983.2 +4.3
06 19.05 С 4 10 км 3/0
[Ac cuf]
+15.1 +3.4 45 +14 +20 1013.4 982.8
09 19.05 С 3 10 км 6/6 800 м
[Cu med, cong]
+16.3 +4.0 44 +16 +21 1013.9 983.3
12 19.05 С 4 10 км 5/5 600 м
[Cu med, cong]
+17.2 +1.6 35 +17 +20 1013.8 983.3
15 19.05 С 4
{10}
10 км 3/3 600 м
[Cu med, cong]
+15.7 -0.6 33 +15 +16 1015.0 984.3 +17.4
18 19.05 СВ 2 10 км ясно +11.2 +1.0 49 +10 +10 1016.9 985.7
21 19.05 В 1 10 км ясно +6.9 +1.3 67 +6 +6 1018.9 987.2
00 20.05 В 1 10 км ясно +4.1 +0.9 80 +3 +3 1020.6 988.5
03 20.05 СВ 2 10 км ясно +5.5 +1.2 74 +3 +5 1021.7 989.7 +3.3
06 20.05 СВ 3 10 км 4/3 600 м
[Cu hum Ci fib]
+11.0 -2.0 40 +10 +15 1021.3 989.9
09 20.05 С 3 10 км 3/3 600 м
[Cu hum]
+13.8 -1.1 36 +13 +22 1021.1 990.0
12 20.05 СЗ 3 10 км 4/3 600 м
[Cu hum Ci fib]
+16.0 -0.8 32 +16 +22 1019.7 988.9
15 20.05 С 2 10 км 3/1 600 м
[Cu hum Ci fib]
+16.2 -1.1 31 +16 +18 1019.2 988.4 +16.7
18 20.05 штиль 0 10 км 1/0
[Cs]
+8.8 +3.2 68 +8 +8 1020.8 989.2
21 20.05 ЮВ 2 10 км ясно +7.5 +1.4 65 +6 +6 1021.4 989.6
00 21.05 Ю 2 10 км ясно +8.1 +0.3 58 +7 +7 1021.9 990.2
03 21.05 ЮЗ 1 10 км ясно +9.3 +1.9 60 +9 +11 1021.8 990.3 +6.4
06 21.05 С 3 10 км 8/0
[Ci fib]
+16.1 -0.6 32 +16 +23 1021.4 990.5
09 21.05 СЗ 2 10 км 8/0
[Ci fib]
+18.7 -1.2 26 +19 +33 опасность
простуды
1020.8 990.2
12 21.05 С 3 10 км 9/0
[Cs]
+19.9 -2.4 22 +20 +27 1019.8 989.4
15 21.05 СЗ 1 10 км 9/0
[Ac lent Cs]
+19.2 +0.5 28 +20 +22 1018.8 988.3 +20.6
18 21.05 Ю 1 10 км 9/0
[Cs]
+12.4 +5.2 61 +13 +13 1018.5 987.4
21 21.05 Ю 2 10 км 9/0
[Cs]
+13.2 +3.3 51 +13 +13 1018.4 987.4
00 22.05 Ю 3 10 км 9/0
[Ac cast Cc]
+12.4 +2.4 50 +11 +11 1017.4 986.3
03 22.05 ЮЗ 1 10 км 10/0
[Ac cast Cc]
+12.9 +5.4 60 +13 +14 1016.2 985.2 +11.6
06 22.05 З 3 10 км 8/0
[Ac cast Cc]
+19.1 +7.7 48 +20 +26 1015.2 984.9
09 22.05 ЮЗ 3 10 км 10/5 600 м
[Cu hum Ci fib]
+22.4 +4.8 32 +23 +28 комфорт 1013.4 983.5
12 22.05 ЮЗ 4 10 км 10/3 600 м
[Cu hum Ci fib]
+23.9 +2.9 25 +23 +27 комфорт 1011.6 981.9
15 22.05 З 4 10 км 10/4 600 м
[Cu hum Ci fib]
+22.6 +4.3 30 +23 +23 комфорт 1010.3 980.5 +24.0
18 22.05 ЮЗ 2
{10}
10 км 8/3 600 м
[Cu med, cong Ci fib]
+18.1 +5.8 44 +19 +19 1010.9 980.6
21 22.05 ЮЗ 3 10 км ясно +16.3 +7.5 56 +16 +16 1010.6 980.1
00 23.05 Ю 2 10 км 3/0
[Cc]
+12.5 +7.8 73 +12 +12 1009.7 978.9
03 23.05 Ю 3 10 км 6/0
[Ac trans Cc]
+11.9 +6.5 69 +10 +11 1008.7 977.8 +11.9
06 23.05 ЮЗ 3 10 км 8/0
[Cc]
+19.9 +7.1 43 +21 +28 комфорт 1006.8 976.8 +11.9
09 23.05 ЮЗ 3 10 км 5/3 600 м
[Cu med, cong Cc]
+22.5 +4.5 31 +23 +31 комфорт 1005.3 975.6
12 23.05 ЮЗ 3 10 км 3/3 600 м
[Cu hum]
+23.7 +4.0 28 +23 +30 комфорт 1002.9 973.4
15 23.05 З 2 10 км 9/9 800 м
[Cb cap]
+22.1 +5.3 33 +22 +23 комфорт 1002.3 972.7 +24.2
18 23.05 штиль 0 10 км {снег} 8/8 800 м
[Cb cap]
+16.0 +12.1 78 +16 +16 1003.2 973.0
21 23.05 З 1 10 км 8/8 840 м
[Sc diur, vesp]
+15.3 +12.6 84 +16 +16 1003.4 973.1
00 24.05 С 3 10 км 10/10 210 м
[St]
+12.8 +11.9 94 +11 +11 1004.6 974.0
03 24.05 СВ 3 10 км 10/10 240 м
[St]
+12.8 +12.3 97 +11 +11 1006.7 976.1 +12.5
06 24.05 СВ 4 10 км 8/8 720 м
[Sc]
+12.4 +9.3 81 +10 +12 1009.3 978.5 +11.9
09 24.05 СВ 4
{10}
10 км 10/10 700 м
[Sc]
+12.7 +7.9 73 +11 +11 1011.8 981.0
12 24.05 СВ 4 10 км 6/6 700 м
[Sc]
+14.8 +4.9 51 +14 +17 1012.7 982.1
15 24.05 СВ 2 10 км ясно +14.9 +1.0 39 +15 +17 1013.3 982.6 +15.6
18 24.05 В 2 10 км ясно +9.6 +1.9 59 +8 +8 1015.3 984.0
21 24.05 В 2 10 км ясно +6.6 +1.4 69 +5 +5 1016.8 985.1
00 25.05 ЮВ 4 10 км ясно +6.9 +0.6 64 +4 +4 1017.1 985.4
03 25.05 ЮВ 6-12
{12}
10 км 6/0
[Ac As Cc]
+8.2 +0.9 60 +5 +5 1017.5 986.0 +6.0
06 25.05 ЮВ 5
{12}
10 км 8/0
[Cc]
+12.7 +2.5 50 +11 +15 1016.9 985.9
09 25.05 ЮВ 5
{10}
10 км 8/0
[Cs]
+16.8 +3.4 41 +16 +23 1015.2 984.6

 

Местоположение метеостанции Пачелма (Пензенская область, Россия): широта 53.33 долгота 43.32 высота над уровнем моря 261 м.

В архиве по умолчанию представлена погода в Пачелме за последнюю неделю. Архивные данные за месяц целиком и за предыдущие месяцы, начиная с января 2011 года, Вы можете получить, выбрав интересующий диапазон дат из раскрывающегося списка и нажав кнопку "Ввод!".


*Определитесь, кто Вы:
робот инопланетянин человек

Внимание! Время в таблицах - всемирное. Для получения местного времени необходимо прибавить поправку, которая равна 3 ч.

Смотрите также архив погоды в соседних городах и на ближайших метеорологических станциях:

Погода в Белинском (Пензенская область, Россия) (40 км)
Погода в Земетчино (Пензенская область, Россия) (49 км)
Погода в Каменке (Пензенская область, Россия) (50 км)
Погода в Торбеево (Мордовия, Россия) (84 км)
Погода в Кирсанове (Тамбовская область, Россия) (84 км)
Погода в Инсаре (Мордовия, Россия) (92 км)
Погода в Моршанске (Тамбовская область, Россия) (102 км)
Погода в Пензе (Пензенская область, Россия) (116 км)
Погода в Колышлее (Пензенская область, Россия) (116 км)
Погода в Ртищево (Саратовская область, Россия) (124 км)

Пояснения к столбцам:

Ветер - указаны скорость ветра в м/с - средняя за 10 мин, порывы в срок и между сроками (в фигурных скобках) и направление, откуда дует ветер: С - северный, СВ - северо-восточный, В - восточный, ЮВ - юго-восточный, Ю - южный, ЮЗ - юго-западный, З - западный, СЗ - северо-западный.
Видимость - горизонтальная дальность видимости в метрах или километрах. При видимости от 1 до 10 км при отсутствии осадков обычно наблюдается дымка, при ухудшении видимости до 1 км и менее - туман. В сухую погоду видимость может ухудшаться дымом, пылью или мглою.
Явления - указаны атмосферные явления, наблюдавшиеся в срок или в последний час перед сроком; фигурными скобками обозначены явления, наблюдавшиеся между сроками (за 1-3 часа до срока); квадратными скобками обозначены град или гололедные отложения с указанием их диаметра в мм.
Облачность - указаны через наклонную черту общая и нижняя облачность в баллах и высота нижней границы облаков в метрах; квадратными скобками обозначены формы облаков: Ci - перистые, Cs - перисто-слоистые, Cc - перисто-кучевые, Ac - высококучевые, As - высокослоистые, Sc - слоисто-кучевые, Ns - слоисто-дождевые, Cu - кучевые, Cb - кучево-дождевые. Подробнее классификацию облаков см. в Атласе облаков (PDF).
T - Температура воздуха - температура, измеренная на высоте 2 м над землей.
Td - Температура точки росы - температура, при понижении до которой содержащийся в воздухе водяной пар достигнет насыщения.
f - Относительная влажность воздуха - влажноcть воздуха, измеренная на высоте 2 м над землей.
Te - Эффективная температура - температура, которую ощущает одетый по сезону человек в тени. Характеристика душности погоды. При расчете учитывается влияние влажности воздуха и скорости ветра на теплоощущения человека.
Tes - Эффективная температура на солнце - температура, которую ощущает человек, с поправкой на солнечный нагрев. Характеристика знойности погоды. Зависит от высоты солнца над горизонтом, облачности и скорости ветра. Ночью, в пасмурную погоду, а также при ветре 12 м/с и более поправка равна нулю.
P - Атмосферное давление - приведенное к уровню моря атмосферное давление.
Po - Атмосферное давление - измеренное на уровне метеостанции атмосферное давление.
Tmin - Минимальная температура - минимум температуры воздуха на высоте 2 м над землей.
Tmax - Максимальная температура - максимум температуры воздуха на высоте 2 м над землей.
R - Количество осадков - Количество выпавших осадков за период времени, мм. При наведении курсора мыши на число - период времени, за который выпало указанное количество осадков.
R24 - Количество осадков - Количество выпавших осадков за 24 часа, мм.
S - Снежный покров - Высота снежного покрова, см. При наведении курсора мыши на число - состояние снежного покрова и степень покрытия местности в баллах.